Regional Weather Roundup
Issued by NWS

Home | Current Version | Previous Version | Text Only | Print | Product List | Glossary On
Versions: 1 2 3 4 5 6 7 8 9 10 11 12 13 14 15 16 17 18 19 20 21 22 23 24 25 26 27 28 29 30 31 32 33 34 35 36 37 38 39 40 41 42 43 44 45 46 47 48 49 50
000
ASUS43 KLOT 312021
RWRIL

ILLINOIS REGIONAL WEATHER ROUNDUP
NATIONAL WEATHER SERVICE CHICAGO/ROMEOVILLE IL
300 PM CDT FRI JUL 31 2015

NOTE: "FAIR" INDICATES FEW OR NO CLOUDS BELOW 12,000 FEET WITH NO
SIGNIFICANT WEATHER AND/OR OBSTRUCTIONS TO VISIBILITY.

* THESE STATIONS ARE NOT UNDER NWS QUALITY CONTROL. THEY ALSO MAY NOT
  REPORT WEATHER SUCH AS PRECIPITATION OR FOG.

ILZ001-002-007-009-015-016-024-312100-
NORTHWEST ILLINOIS

CITY           SKY/WX    TMP DP  RH WIND       PRES   REMARKS
MOLINE         SUNNY     89  56  32 NW15      30.03F HX  87
STERLING*      SUNNY     86  59  39 NW16G24   29.98F HX  85
SAVANNA*       SUNNY     85  52  31 NW13G25   30.01S HX  83
$$

ILZ003-004-008-010-011-017-018-312100-
NORTH CENTRAL ILLINOIS

CITY           SKY/WX    TMP DP  RH WIND       PRES   REMARKS
ROCKFORD       MOSUNNY   85  50  29 NW21G29   30.00F HX  83
FREEPORT*      SUNNY     83  54  36 W17G23    30.01F HX  82
ROCHELLE*      SUNNY     84  55  37 NW21G26   30.00F HX  83
DE KALB*       MOSUNNY   83  52  33 NW20G33   30.00S HAZE    HX  82
PERU*          SUNNY     85  53  33 NW18G26   30.01F HX  83
$$

ILZ005-006-012>014-019>023-312100-
NORTHEAST ILLINOIS

CITY           SKY/WX    TMP DP  RH WIND       PRES   REMARKS
CHICAGO-OHARE  MOSUNNY   86  53  32 NW17G28   29.95F HX  84
CHICAGO-MIDWAY MOSUNNY   89  51  27 W22G29    29.94F HX  86
AURORA         SUNNY     85  54  34 NW18G28   29.98F HX  83
LANSING*       MOSUNNY   88  52  29 W16G24    29.95F HX  85
JOLIET*        SUNNY     87  56  34 W10G18    29.97F HX  86
WAUKEGAN       MOSUNNY   83  51  33 W12G22    29.94F HX  81
DUPAGE AIRPORT MOSUNNY   85  51  31 NW17G26   29.97F HX  83
KANKAKEE*      SUNNY     86  58  38 W15       29.99F HX  85
WHEELING       SUNNY     86  48  26 NW22G32   29.95F HX  83
MORRIS*        SUNNY     84  60  44 NW15G24   29.98S HX  84
ROMEOVILLE*    SUNNY     85  51  30 NW22G30   29.97F HX  83
NORTHERLY ISL    N/A     86  46  24 W20         N/A  HX  83
$$

LMZ740>746-312100-
SOUTHERN LAKE MICHIGAN

STATION/POSITION SKY/WX   TEMP    WIND        PRES    VSBY  WAVE
                          AIR SEA DIR/SP/G                  HT/PER
                          (F)     (DEG/KT/KT) (MB)    (MI)  (FT/S)
HARRISON CRIB              82     290/ 20/ 26   N/A
BURNHAM HARBOR             85     280/ 15/ 21   N/A
CALUMET HARBOR             87     280/  8/ 18   N/A
BURNS HARBOR               78     330/  1/  4 1014.9F
MICHIGAN CITY              79     250/  5/  6   N/A
MICHIGAN CITY 6N           78 76  300/  4/  4   N/A           1/ 3
ST. JOSEPH                 76 74  300/  8/ 10   N/A           2/ 4
$$

ILZ025>027-034>036-040-047-049-050-058-095>099-312100-
WEST-CENTRAL ILLINOIS

CITY           SKY/WX    TMP DP  RH WIND       PRES   REMARKS
QUINCY         SUNNY     87  66  49 NW9       30.07F HX  89
GALESBURG*     SUNNY     86  63  46 NW10      30.05F HX  87
MACOMB*        SUNNY     87  67  51 NW8       30.08S HX  90
JACKSONVILLE*  SUNNY     89  70  54 W7        30.05F HX  94
PITTSFIELD*    SUNNY     88  65  47 NW6       30.08F HX  90
$$

ILZ028>032-037-038-041>044-048-051>054-059>061-312100-
CENTRAL ILLINOIS

CITY           SKY/WX    TMP DP  RH WIND       PRES   REMARKS
PONTIAC        SUNNY     85  65  51 NW10G18   30.02F HX  86
BLOOMINGTON    SUNNY     88  55  32 NW17G26   30.04F HX  86
DECATUR        MOSUNNY   89  63  41 NW15      30.04F HX  90
PEORIA         SUNNY     90  60  36 N9        30.03F HX  89
LACON*         SUNNY     86  58  39 NW13G21   30.01F HX  85
LINCOLN*       SUNNY     91  56  31 NW7       30.02F HX  89
SPRINGFIELD    SUNNY     89  69  51 W10G17    30.04F HX  93
TAYLORVILLE    MOSUNNY   86  68  54 W10G16    30.05F HX  89
$$

ILZ033-039-045-046-055>057-062-063-312100-
EAST-CENTRAL ILLINOIS

CITY           SKY/WX    TMP DP  RH WIND       PRES   REMARKS
CHAMPAIGN      SUNNY     87  68  52 W14G21    30.03F HX  90
DANVILLE*      MOSUNNY   84  68  57 W12G20    29.98F HX  87
RANTOUL*       SUNNY     89  59  36 NW20G28   30.01F HX  88
MATTOON        MOSUNNY   89  64  43 NW14      30.03F HX  90
PARIS*         SUNNY     87  65  49 W12       30.03F HX  89
$$

ILZ079-100>102-312100-
SOUTHWEST ILLINOIS

CITY           SKY/WX    TMP DP  RH WIND       PRES   REMARKS
ALTON          MOSUNNY   88  66  48 NW10      30.06F HX  90
BELLEVILLE     SUNNY     91  69  49 VRB3G21   30.05F HX  95
CAHOKIA*       SUNNY     94  56  27 NW14      30.05F HX  92
SPARTA*        SUNNY     89  65  45 N8        30.07F HX  90
$$

ILZ064>066-069>071-074>076-080>082-084>086-088>090-092>094-312100-
SOUTH-CENTRAL ILLINOIS

CITY           SKY/WX    TMP DP  RH WIND       PRES   REMARKS
CARBONDALE     MOSUNNY   89  66  46 N12       30.06F HX  91
CAIRO*         SUNNY     87  69  54 N6        30.06F HX  91
EFFINGHAM*     MOSUNNY   89  60  36 NW10      30.05F HX  88
MARION         MOSUNNY   90  68  48 N14       30.07F HX  93
CENTRALIA*     SUNNY     88  63  43 N8        30.05F HX  89
SALEM*         SUNNY     90  64  43 N8        30.06F HX  91
METROPOLIS*    MOSUNNY   88  68  51 NW7       30.07S HX  91
$$

ILZ067-068-072-073-078-083-087-091-312100-
SOUTHEAST ILLINOIS

CITY           SKY/WX    TMP DP  RH WIND       PRES   REMARKS
LAWRENCEVILLE  SUNNY     89  66  46 NW7       30.03F HX  91
FLORA*         SUNNY     88  65  46 NW7       30.04F HX  90
FAIRFIELD*     SUNNY     87  68  52 N7        30.04F HX  91
HARRISBURG*    MOSUNNY   89  64  43 NW10      30.07F HX  90
ROBINSON*      SUNNY     87  66  49 W9        30.03F HX  90
CARMI*         SUNNY     87  62  43 CALM      30.04F HX  88
$$

ABBREVIATIONS USED IN REMARKS
   TC - TEMPERATURE IN CELSIUS
  WCI - WIND CHILL INDEX
   HX - HEAT INDEX
  VSB - VISIBILITY
$$




USA.gov is the U.S. government's official web portal to all federal, state and local government web resources and services.